Regional Weather Roundup
Issued by NWS Kansas City/Pleasant Hill, MO

Home | Current Version | Previous Version | Graphics & Text | Print | Product List | Glossary Off
Versions: 1 2 3 4 5 6 7 8 9 10 11 12 13 14 15 16 17 18 19 20 21 22 23 24 25 26 27 28

000
ASUS43 KEAX 250510
RWREAX

WEATHER ROUNDUP FOR EASTERN KANSAS AND NORTHWEST MISSOURI
NATIONAL WEATHER SERVICE KANSAS CITY/PLEASANT HILL MO
1200 AM CDT TUE APR 25 2017

KSZ040-057-103>105-MOZ028-029-037-043-250600-
...KANSAS CITY METROPOLITAN AREA...

CITY           SKY/WX    TMP DP  RH WIND       PRES   REMARKS
K.C. INTL      PTCLDY    62  44  51 S13       29.58F
K.C. DOWNTOWN  CLEAR     66  43  43 S10       29.58F
LEES SUMMIT    CLOUDY    61  43  51 S9        29.60F
OLATHE - IXD   CLOUDY    63  45  51 S10       29.59F
OLATHE - OJC   PTCLDY    59  46  62 S8        29.59F
LAWRENCE       CLOUDY    64  46  52 S8        29.57F

$$

MOZ001>008-011>017-020>025-030>033-038>040-044>046-053-054-250600-
...NORTHERN AND CENTRAL MISSOURI...

CITY           SKY/WX    TMP DP  RH WIND       PRES   REMARKS
ST. JOSEPH     PTCLDY    62  45  53 S9        29.57F
MOSBY          PTCLDY    61  41  48 CALM      29.60F
WHITEMAN AFB   PTCLDY    55  39  54 S5        29.62F
CLINTON        CLOUDY    57  41  54 S7        29.64F
SEDALIA        CLOUDY    58  39  49 S12       29.64F
WARSAW         NOT AVBL
CHILLICOTHE      N/A     53  41  63 CALM      29.62F
KIRKSVILLE     CLEAR     52  32  46 SE9       29.64F

$$

MOZ041-047>049-056>058-063>065-088>090-097-250600-
...EASTERN AND SOUTHERN MISSOURI...

CITY           SKY/WX    TMP DP  RH WIND       PRES   REMARKS
ST. LOUIS INTL CLEAR     66  38  35 SE8       29.72S
SPIRIT OF STL  CLEAR     53  44  71 CALM      29.71S
COLUMBIA       PTCLDY    58  36  43 S9        29.66F
JEFFERSON CITY PTCLDY    60  37  42 E7        29.66F
ROLLA          CLEAR     60  41  49 S13       29.69F
OSAGE BEACH    MOCLDY    59  40  49 S6        29.69F
SPRINGFIELD    CLOUDY    59  38  45 S10       29.68F
BRANSON        CLEAR     55  39  54 CALM      29.72S
JOPLIN         CLOUDY    59  45  59 S10       29.65F
WEST PLAINS    CLEAR     58  45  62 S7        29.76R

$$

IAZ060-094-KSZ022-034>040-054-083-096-NEZ052-066-093-250600-
...KANSAS...SOUTHEAST NEBRASKA AND IOWA...

CITY           SKY/WX    TMP DP  RH WIND       PRES   REMARKS
TOPEKA         CLOUDY    65  47  52 S14       29.55F
MANHATTAN      CLOUDY    65  48  54 S9        29.53S
EMPORIA        CLOUDY    62  49  62 S14       29.56F
CHANUTE        PTCLDY    61  47  59 S12       29.61S
WICHITA        CLOUDY    63  50  62 S12       29.53F
OMAHA          MOCLDY    63  44  50 S8        29.52S
LINCOLN        PTCLDY    59  48  67 CALM      29.53S
FALLS CITY     CLOUDY    55  46  71 SE7       29.54F
LAMONI         CLOUDY    63  37  38 S10       29.60S
DES MOINES     CLOUDY    64  35  34 S8        29.58F

$$





USA.gov is the U.S. government's official web portal to all federal, state and local government web resources and services.